Weather History for Fort Drum, NY

Change the Weather History Date:

Monday, January 21, 2013

  Actual Average Record
Temperature  
Mean Temperature 11 °F -  
Max Temperature 16 °F 20 °F 51 °F (2006)
Min Temperature 6 °F 4 °F -20 °F (2005)
Degree Days  
Heating Degree Days 54    
Moisture  
Dew Point 7 °F    
Average Humidity 81    
Maximum Humidity 92    
Minimum Humidity 53    
Precipitation  
Precipitation 0.00 in - - ()
Sea Level Pressure  
Sea Level Pressure 29.92 in    
Wind  
Wind Speed 5 mph (NE)    
Max Wind Speed 12 mph    
Max Gust Speed -    
Visibility 7 miles    
Events Snow    
Averages and records for this station are not official NWS values.
T = Trace of Precipitation, MM = Missing Value Source: NWS Daily Summary

Daily Weather History Graph

Daily Weather History Graph

Search for Another Location

Airport:

Trip Planner

Search our weather history database for the weather conditions in past years. The results will help you decide how hot, cold, wet, or windy it might be!

Date:

Astronomy

Jan. 21, 2013 Rise Set
Actual Time 7:30 AM EST 4:58 PM EST
Civil Twilight 6:58 AM EST 5:30 PM EST
Nautical Twilight 6:23 AM EST 6:05 PM EST
Astronomical Twilight 5:49 AM EST 6:39 PM EST
Moon 12:36 PM EST (1/21) 2:57 AM EST (1/21)
Length of Visible Light 10h 31m
Length of Day
9h 27m
Waxing Gibbous, 75% of the Moon is Illuminated
Jan 21
Waxing Gibbous
Jan 26
Full
Feb 3
Last Quarter
Feb 10
New
Feb 17
First Quarter

Hourly Weather History & Observations

Time (EST) Temp. Windchill Dew Point Humidity Pressure Visibility Wind Dir Wind Speed Gust Speed Precip Events Conditions
12:55 AM 10.0 °F 0.4 °F 2.5 °F 72% 30.05 in 10.0 mi WNW 5.8 mph - N/A   Clear
1:55 AM 9.3 °F -0.5 °F 0.3 °F 67% 30.05 in 10.0 mi WNW 5.8 mph - N/A   Clear
2:55 AM 8.1 °F - 0.3 °F 71% 30.05 in 10.0 mi Calm Calm - N/A   Clear
3:55 AM 7.7 °F 1.0 °F 0.9 °F 74% 30.05 in 10.0 mi ENE 3.5 mph - N/A   Partly Cloudy
4:55 AM 8.4 °F - -1.8 °F 63% 30.05 in 10.0 mi Calm Calm - N/A   Overcast
5:55 AM 8.8 °F - -3.3 °F 58% 30.05 in 10.0 mi Calm Calm - N/A   Overcast
6:55 AM 8.4 °F - -5.4 °F 53% 30.06 in 10.0 mi Calm Calm - N/A   Mostly Cloudy
7:55 AM 8.6 °F - 0.1 °F 68% 30.06 in 10.0 mi Calm Calm - N/A   Mostly Cloudy
8:55 AM 8.8 °F - -0.9 °F 65% 30.05 in 10.0 mi Calm Calm - N/A   Scattered Clouds
9:34 AM 10.4 °F - -0.4 °F 62% 30.05 in 10.0 mi Calm Calm - N/A   Mostly Cloudy
9:55 AM 10.6 °F - 2.1 °F 69% 30.05 in 10.0 mi Calm Calm - N/A   Overcast
9:59 AM 10.4 °F - 3.2 °F 73% 30.05 in 10.0 mi Calm Calm - N/A Snow Light Snow
10:55 AM 12.2 °F - 6.1 °F 76% 30.04 in 6.0 mi Calm Calm - 0.00 in Snow Light Snow
11:03 AM 12.2 °F - 6.8 °F 79% 30.04 in 7.0 mi Calm Calm - N/A Snow Light Snow
11:12 AM 12.2 °F - 6.8 °F 79% 30.03 in 5.0 mi Calm Calm - N/A Snow Light Snow
11:16 AM 12.2 °F - 6.8 °F 79% 30.03 in 5.0 mi Calm Calm - N/A Snow Light Snow
11:21 AM 12.2 °F - 6.8 °F 79% 30.02 in 6.0 mi Calm Calm - N/A Snow Light Snow
11:27 AM 14.0 °F - 8.6 °F 79% 30.01 in 5.0 mi Calm Calm - N/A Snow Light Snow
11:36 AM 14.0 °F 8.2 °F 8.6 °F 79% 30.01 in 5.0 mi NE 3.5 mph - N/A Snow Light Snow
11:55 AM 13.8 °F 8.0 °F 8.4 °F 79% 30.00 in 7.0 mi ENE 3.5 mph - 0.00 in Snow Light Snow
11:58 AM 14.0 °F 8.2 °F 8.6 °F 79% 29.99 in 8.0 mi NNE 3.5 mph - N/A Snow Light Snow
12:00 PM 14.0 °F 6.5 °F 8.6 °F 79% 29.99 in 8.0 mi NE 4.6 mph - N/A Snow Light Snow
12:12 PM 14.0 °F - 8.6 °F 79% 29.99 in 6.0 mi Calm Calm - N/A Snow Light Snow
12:22 PM 14.0 °F 8.2 °F 8.6 °F 79% 29.98 in 6.0 mi East 3.5 mph - N/A Snow Light Snow
12:29 PM 14.0 °F - 8.6 °F 79% 29.97 in 5.0 mi Calm Calm - N/A Snow Light Snow
12:30 PM 14.0 °F - 8.6 °F 79% 29.97 in 6.0 mi Calm Calm - N/A Snow Light Snow
12:32 PM 14.0 °F 8.2 °F 8.6 °F 79% 29.97 in 6.0 mi ENE 3.5 mph - N/A Snow Light Snow
12:33 PM 14.0 °F 8.2 °F 8.6 °F 79% 29.97 in 6.0 mi ENE 3.5 mph - N/A Snow Light Snow
12:41 PM 14.0 °F 5.1 °F 8.6 °F 79% 29.96 in 8.0 mi NE 5.8 mph - N/A Snow Light Snow
12:42 PM 14.0 °F 5.1 °F 8.6 °F 79% 29.96 in 8.0 mi NE 5.8 mph - N/A Snow Light Snow
12:44 PM 14.0 °F 8.2 °F 8.6 °F 79% 29.96 in 8.0 mi NE 3.5 mph - N/A Snow Light Snow
12:45 PM 14.0 °F 8.2 °F 8.6 °F 79% 29.96 in 8.0 mi NE 3.5 mph - N/A Snow Light Snow
12:46 PM 14.0 °F 6.5 °F 8.6 °F 79% 29.96 in 8.0 mi NE 4.6 mph - N/A Snow Light Snow
12:47 PM 14.0 °F 5.1 °F 8.6 °F 79% 29.95 in 7.0 mi NE 5.8 mph - N/A Snow Light Snow
12:48 PM 14.0 °F 5.1 °F 8.6 °F 79% 29.95 in 7.0 mi ENE 5.8 mph - N/A Snow Light Snow
12:57 PM 15.8 °F 8.6 °F 10.4 °F 79% 29.95 in 7.0 mi NE 4.6 mph - N/A Snow Light Snow
1:07 PM 15.8 °F 10.2 °F 10.4 °F 79% 29.95 in 9.0 mi Variable 3.5 mph - N/A Snow Light Snow
1:16 PM 15.8 °F 8.6 °F 10.4 °F 79% 29.94 in 9.0 mi ENE 4.6 mph - N/A Snow Light Snow
1:27 PM 15.8 °F 7.2 °F 10.4 °F 79% 29.94 in 9.0 mi ENE 5.8 mph - N/A Snow Light Snow
1:36 PM 15.8 °F 7.2 °F 10.4 °F 79% 29.94 in 10.0 mi ENE 5.8 mph - N/A   Overcast
1:42 PM 15.8 °F 7.2 °F 10.4 °F 79% 29.93 in 9.0 mi NE 5.8 mph - N/A Snow Light Snow
1:43 PM 15.8 °F 8.6 °F 10.4 °F 79% 29.93 in 9.0 mi NE 4.6 mph - N/A Snow Light Snow
1:55 PM 15.6 °F 7.0 °F 10.4 °F 80% 29.92 in 4.0 mi ENE 5.8 mph - 0.00 in Snow Light Snow
2:02 PM 15.8 °F 6.1 °F 10.4 °F 79% 29.92 in 4.0 mi ENE 6.9 mph - N/A Snow Light Snow
2:15 PM 15.8 °F 5.1 °F 10.4 °F 79% 29.91 in 6.0 mi ENE 8.1 mph - N/A Snow Light Snow
2:17 PM 15.8 °F 6.1 °F 10.4 °F 79% 29.91 in 6.0 mi ENE 6.9 mph - N/A Snow Light Snow
2:22 PM 15.8 °F 4.2 °F 10.4 °F 79% 29.91 in 7.0 mi ENE 9.2 mph - N/A Snow Light Snow
2:24 PM 15.8 °F 6.1 °F 10.4 °F 79% 29.91 in 7.0 mi ENE 6.9 mph - N/A Snow Light Snow
2:33 PM 15.8 °F 5.1 °F 10.4 °F 79% 29.91 in 7.0 mi ENE 8.1 mph - N/A Snow Light Snow
2:36 PM 15.8 °F 5.1 °F 10.4 °F 79% 29.91 in 8.0 mi ENE 8.1 mph - N/A Snow Light Snow
2:37 PM 15.8 °F 5.1 °F 10.4 °F 79% 29.91 in 8.0 mi ENE 8.1 mph - N/A Snow Light Snow
2:42 PM 15.8 °F 5.1 °F 10.4 °F 79% 29.90 in 9.0 mi ENE 8.1 mph - N/A Snow Light Snow
2:43 PM 15.8 °F 5.1 °F 10.4 °F 79% 29.90 in 9.0 mi ENE 8.1 mph - N/A Snow Light Snow
2:48 PM 15.8 °F 6.1 °F 10.4 °F 79% 29.90 in 9.0 mi ENE 6.9 mph - N/A Snow Light Snow
2:50 PM 15.8 °F 6.1 °F 10.4 °F 79% 29.90 in 9.0 mi NE 6.9 mph - N/A Snow Light Snow
2:51 PM 15.8 °F 6.1 °F 10.4 °F 79% 29.90 in 9.0 mi NE 6.9 mph - N/A Snow Light Snow
2:52 PM 15.8 °F 6.1 °F 10.4 °F 79% 29.90 in 9.0 mi ENE 6.9 mph - N/A Snow Light Snow
2:55 PM 16.2 °F 6.5 °F 10.9 °F 80% 29.90 in 9.0 mi NE 6.9 mph - 0.00 in Snow Light Snow
2:57 PM 15.8 °F 5.1 °F 10.4 °F 79% 29.90 in 10.0 mi ENE 8.1 mph - N/A   Overcast
2:59 PM 15.8 °F 5.1 °F 10.4 °F 79% 29.90 in 10.0 mi ENE 8.1 mph - N/A Snow Light Snow
3:00 PM 15.8 °F 5.1 °F 10.4 °F 79% 29.90 in 10.0 mi ENE 8.1 mph - N/A Snow Light Snow
3:01 PM 15.8 °F 5.1 °F 10.4 °F 79% 29.90 in 10.0 mi ENE 8.1 mph - N/A Snow Light Snow
3:02 PM 15.8 °F 6.1 °F 10.4 °F 79% 29.90 in 10.0 mi ENE 6.9 mph - N/A Snow Light Snow
3:05 PM 15.8 °F 6.1 °F 10.4 °F 79% 29.90 in 9.0 mi Variable 6.9 mph - N/A   Overcast
3:17 PM 15.8 °F 6.1 °F 10.4 °F 79% 29.90 in 8.0 mi NNE 6.9 mph - N/A Snow Light Snow
3:18 PM 15.8 °F 6.1 °F 10.4 °F 79% 29.90 in 8.0 mi NE 6.9 mph - N/A Snow Light Snow
3:24 PM 15.8 °F 5.1 °F 10.4 °F 79% 29.90 in 7.0 mi NNE 8.1 mph - N/A Snow Light Snow
3:25 PM 15.8 °F 5.1 °F 10.4 °F 79% 29.90 in 7.0 mi NNE 8.1 mph - N/A Snow Light Snow
3:30 PM 15.8 °F 6.1 °F 10.4 °F 79% 29.90 in 7.0 mi NE 6.9 mph - N/A Snow Light Snow
3:32 PM 15.8 °F 5.1 °F 10.4 °F 79% 29.90 in 7.0 mi NE 8.1 mph - N/A Snow Light Snow
3:34 PM 15.8 °F 5.1 °F 10.4 °F 79% 29.90 in 6.0 mi NE 8.1 mph - N/A Snow Light Snow
3:35 PM 15.8 °F 4.2 °F 10.4 °F 79% 29.90 in 6.0 mi NE 9.2 mph - N/A Snow Light Snow
3:37 PM 15.8 °F 4.2 °F 10.4 °F 79% 29.90 in 6.0 mi NE 9.2 mph - N/A Snow Light Snow
3:38 PM 15.8 °F 4.2 °F 10.4 °F 79% 29.89 in 5.0 mi NE 9.2 mph - N/A Snow Light Snow
3:40 PM 15.8 °F 4.2 °F 10.4 °F 79% 29.89 in 6.0 mi NE 9.2 mph - N/A Snow Light Snow
3:41 PM 15.8 °F 4.2 °F 10.4 °F 79% 29.89 in 6.0 mi NE 9.2 mph - N/A Snow Light Snow
3:43 PM 15.8 °F 5.1 °F 10.4 °F 79% 29.89 in 6.0 mi NE 8.1 mph - N/A Snow Light Snow
3:48 PM 15.8 °F 3.4 °F 10.4 °F 79% 29.89 in 9.0 mi NE 10.4 mph - N/A   Overcast
3:50 PM 15.8 °F 5.1 °F 10.4 °F 79% 29.89 in 9.0 mi NE 8.1 mph - N/A   Overcast
3:53 PM 15.8 °F 4.2 °F 10.4 °F 79% 29.89 in 9.0 mi NE 9.2 mph - N/A   Overcast
3:55 PM 15.1 °F 3.3 °F 10.6 °F 82% 29.89 in 9.0 mi NE 9.2 mph - 0.00 in   Overcast
3:57 PM 15.8 °F 4.2 °F 10.4 °F 79% 29.89 in 8.0 mi NE 9.2 mph - N/A   Overcast
4:02 PM 15.8 °F 5.1 °F 10.4 °F 79% 29.89 in 5.0 mi NE 8.1 mph - N/A Snow Light Snow
4:08 PM 15.8 °F 4.2 °F 10.4 °F 79% 29.89 in 4.0 mi NNE 9.2 mph - N/A Snow Light Snow
4:13 PM 15.8 °F 6.1 °F 10.4 °F 79% 29.89 in 3.0 mi NE 6.9 mph - N/A Snow Light Snow
4:22 PM 15.8 °F 5.1 °F 10.4 °F 79% 29.89 in 3.0 mi NNE 8.1 mph - N/A Snow Light Snow
4:24 PM 15.8 °F 4.2 °F 10.4 °F 79% 29.89 in 3.0 mi NNE 9.2 mph - N/A Snow Light Snow
4:29 PM 14.0 °F 2.9 °F 10.4 °F 86% 29.89 in 2.5 mi NNE 8.1 mph - N/A Snow Light Snow
4:31 PM 14.0 °F 2.9 °F 10.4 °F 86% 29.89 in 2.0 mi NNE 8.1 mph - N/A Snow Light Snow
4:33 PM 14.0 °F 2.0 °F 10.4 °F 86% 29.89 in 1.8 mi NNE 9.2 mph - N/A Snow Light Snow
4:37 PM 14.0 °F 1.2 °F 10.4 °F 86% 29.89 in 1.2 mi NNE 10.4 mph - N/A Snow Light Snow
4:43 PM 14.0 °F 1.2 °F 10.4 °F 86% 29.89 in 1.2 mi NNE 10.4 mph - N/A Snow Light Snow
4:48 PM 14.0 °F 2.0 °F 10.4 °F 86% 29.89 in 1.5 mi NE 9.2 mph - N/A Snow Light Snow
4:55 PM 13.8 °F 2.7 °F 10.8 °F 88% 29.89 in 1.8 mi NNE 8.1 mph - 0.00 in Snow Light Snow
5:03 PM 14.0 °F 2.9 °F 10.4 °F 86% 29.89 in 2.0 mi NNE 8.1 mph - N/A Snow Light Snow
5:06 PM 14.0 °F 2.0 °F 10.4 °F 86% 29.89 in 2.5 mi NNE 9.2 mph - N/A Snow Light Snow
5:09 PM 14.0 °F 2.9 °F 10.4 °F 86% 29.89 in 3.0 mi NNE 8.1 mph - N/A Snow Light Snow
5:41 PM 12.2 °F -1.8 °F 8.6 °F 85% 29.89 in 5.0 mi NNE 11.5 mph - N/A Snow Light Snow
5:55 PM 11.8 °F 1.3 °F 8.8 °F 88% 29.90 in 7.0 mi NNE 6.9 mph - 0.00 in   Overcast
6:05 PM 12.2 °F 0.7 °F 8.6 °F 85% 29.90 in 8.0 mi NNE 8.1 mph - N/A Snow Light Snow
6:21 PM 10.4 °F -3.3 °F 6.8 °F 85% 29.90 in 8.0 mi NNE 10.4 mph - N/A Snow Light Snow
6:32 PM 10.4 °F -1.5 °F 6.8 °F 85% 29.90 in 7.0 mi North 8.1 mph - N/A Snow Light Snow
6:50 PM 10.4 °F -3.3 °F 6.8 °F 85% 29.91 in 9.0 mi North 10.4 mph - N/A Snow Light Snow
6:55 PM 9.5 °F -5.2 °F 6.1 °F 86% 29.91 in 10.0 mi NNE 11.5 mph - 0.00 in Snow Light Snow
7:01 PM 10.4 °F -2.4 °F 6.8 °F 85% 29.91 in 10.0 mi NNE 9.2 mph - N/A Snow Light Snow
7:19 PM 8.6 °F -3.7 °F 5.0 °F 85% 29.91 in 10.0 mi NNE 8.1 mph - N/A Snow Light Snow
7:22 PM 8.6 °F -2.6 °F 5.0 °F 85% 29.91 in 10.0 mi NNE 6.9 mph - N/A Snow Light Snow
7:29 PM 8.6 °F -5.5 °F 5.0 °F 85% 29.91 in 10.0 mi NNE 10.4 mph - N/A Snow Light Snow
7:30 PM 8.6 °F -3.7 °F 5.0 °F 85% 29.91 in 10.0 mi NNE 8.1 mph - N/A   Overcast
7:40 PM 8.6 °F -3.7 °F 5.0 °F 85% 29.90 in 10.0 mi NE 8.1 mph - N/A   Overcast
7:43 PM 8.6 °F -4.7 °F 5.0 °F 85% 29.90 in 10.0 mi NNE 9.2 mph - N/A   Overcast
7:45 PM 8.6 °F -3.7 °F 5.0 °F 85% 29.90 in 10.0 mi NNE 8.1 mph - N/A   Overcast
7:55 PM 8.6 °F -3.7 °F 5.2 °F 86% 29.90 in 10.0 mi NNE 8.1 mph - 0.00 in   Overcast
7:59 PM 8.6 °F -3.7 °F 5.0 °F 85% 29.90 in 10.0 mi NNE 8.1 mph - N/A Snow Light Snow
8:00 PM 8.6 °F -3.7 °F 5.0 °F 85% 29.90 in 10.0 mi NNE 8.1 mph - N/A Snow Light Snow
8:23 PM 8.6 °F -3.7 °F 5.0 °F 85% 29.89 in 4.0 mi NNE 8.1 mph - N/A Snow Light Snow
8:28 PM 8.6 °F -3.7 °F 5.0 °F 85% 29.89 in 4.0 mi NE 8.1 mph - N/A Snow Light Snow
8:33 PM 8.6 °F -2.6 °F 5.0 °F 85% 29.89 in 5.0 mi NNE 6.9 mph - N/A Snow Light Snow
8:36 PM 8.6 °F -3.7 °F 5.0 °F 85% 29.89 in 4.0 mi NNE 8.1 mph - N/A Snow Light Snow
8:41 PM 8.6 °F 0.1 °F 5.0 °F 85% 29.89 in 2.5 mi NE 4.6 mph - N/A Snow Light Snow
8:45 PM 8.6 °F 0.1 °F 5.0 °F 85% 29.89 in 2.5 mi NE 4.6 mph - N/A Snow Light Snow
8:48 PM 8.6 °F 0.1 °F 5.0 °F 85% 29.88 in 2.0 mi NE 4.6 mph - N/A Snow Light Snow
8:53 PM 8.6 °F 0.1 °F 5.0 °F 85% 29.88 in 2.0 mi NE 4.6 mph - N/A Snow Light Snow
8:55 PM 8.2 °F 1.6 °F 5.2 °F 87% 29.88 in 2.0 mi NE 3.5 mph - 0.00 in Snow Light Snow
8:57 PM 8.6 °F 0.1 °F 5.0 °F 85% 29.88 in 2.0 mi NE 4.6 mph - N/A Snow Light Snow
8:59 PM 8.6 °F 0.1 °F 5.0 °F 85% 29.88 in 2.5 mi NE 4.6 mph - N/A Snow Light Snow
9:08 PM 8.6 °F -2.6 °F 5.0 °F 85% 29.88 in 3.0 mi NE 6.9 mph - N/A Snow Light Snow
9:20 PM 6.8 °F -3.5 °F 5.0 °F 92% 29.88 in 5.0 mi ENE 5.8 mph - N/A   Overcast
9:34 PM 6.8 °F -3.5 °F 3.2 °F 85% 29.87 in 8.0 mi ENE 5.8 mph - N/A   Overcast
9:55 PM 7.2 °F - 4.1 °F 87% 29.87 in 10.0 mi Calm Calm - 0.00 in   Overcast
9:57 PM 6.8 °F - 3.2 °F 85% 29.87 in 10.0 mi Calm Calm - N/A   Overcast
9:58 PM 6.8 °F - 3.2 °F 85% 29.87 in 10.0 mi Calm Calm - N/A   Overcast
10:01 PM 6.8 °F -0.1 °F 5.0 °F 92% 29.87 in 10.0 mi NE 3.5 mph - N/A   Overcast
10:04 PM 6.8 °F - 5.0 °F 92% 29.87 in 10.0 mi Calm Calm - N/A   Overcast
10:13 PM 6.8 °F - 5.0 °F 92% 29.88 in 10.0 mi Calm Calm - N/A   Overcast
10:15 PM 6.8 °F - 5.0 °F 92% 29.88 in 10.0 mi Calm Calm - N/A   Overcast
10:16 PM 6.8 °F - 5.0 °F 92% 29.88 in 10.0 mi Calm Calm - N/A Snow Light Snow
10:18 PM 6.8 °F - 5.0 °F 92% 29.88 in 10.0 mi Calm Calm - N/A Snow Light Snow
10:38 PM 6.8 °F -2.0 °F 5.0 °F 92% 29.86 in 5.0 mi NNE 4.6 mph - N/A Snow Light Snow
10:41 PM 6.8 °F -0.1 °F 5.0 °F 92% 29.87 in 5.0 mi North 3.5 mph - N/A Snow Light Snow
10:55 PM 7.5 °F -2.6 °F 4.6 °F 88% 29.87 in 9.0 mi NNW 5.8 mph - 0.00 in Snow Light Snow
11:04 PM 6.8 °F -0.1 °F 5.0 °F 92% 29.87 in 9.0 mi North 3.5 mph - N/A Snow Light Snow
11:12 PM 6.8 °F -2.0 °F 5.0 °F 92% 29.86 in 10.0 mi NNE 4.6 mph - N/A Snow Light Snow
11:14 PM 6.8 °F -0.1 °F 5.0 °F 92% 29.86 in 10.0 mi North 3.5 mph - N/A Snow Light Snow
11:18 PM 6.8 °F - 5.0 °F 92% 29.87 in 10.0 mi Calm Calm - N/A   Overcast
11:46 PM 6.8 °F -0.1 °F 5.0 °F 92% 29.87 in 10.0 mi WNW 3.5 mph - N/A Snow Light Snow
11:47 PM 6.8 °F -0.1 °F 5.0 °F 92% 29.87 in 10.0 mi WNW 3.5 mph - N/A Snow Light Snow
11:55 PM 7.0 °F 0.1 °F 4.1 °F 88% 29.87 in 10.0 mi WNW 3.5 mph - 0.00 in Snow Light Snow
11:56 PM 6.8 °F -0.1 °F 5.0 °F 92% 29.87 in 10.0 mi WNW 3.5 mph - N/A   Overcast